Weather History for St. Cloud, MN

Change the Weather History Date:

Thursday, July 25, 2013

  Actual Average Record
Temperature  
Mean Temperature 68 °F 70 °F  
Max Temperature 79 °F 82 °F 102 °F (1931)
Min Temperature 57 °F 58 °F 46 °F (2004)
Degree Days  
Heating Degree Days 0 0  
Month to date heating degree days 0 13  
Since 1 June heating degree days 87 91  
Since 1 July heating degree days 0 13  
Cooling Degree Days 3 6  
Month to date cooling degree days 215 149  
Year to date cooling degree days 325 269  
Since 1 June cooling degree days 314 244  
Growing Degree Days 18 (Base 50)    
Moisture  
Dew Point 60 °F    
Average Humidity 73    
Maximum Humidity 100    
Minimum Humidity 45    
Precipitation  
Precipitation 0.21 in 0.11 in 1.50 in (1997)
Month to date precipitation 1.36 2.70  
Year to date precipitation 19.41 15.18  
Snow  
Snow 0.00 in 0.00 in 0.00 in ()
Month to date snowfall 0.0 0.0  
Since 1 June snowfall 0.0 0.0  
Since 1 July snowfall 0.0 0.0  
Snow Depth 0.00 in    
Sea Level Pressure  
Sea Level Pressure 29.95 in    
Wind  
Wind Speed 5 mph (WSW)    
Max Wind Speed 21 mph    
Max Gust Speed 25 mph    
Visibility 9 miles    
Events Rain , Thunderstorm    
T = Trace of Precipitation, MM = Missing Value Source: NWS Daily Summary

Daily Weather History Graph

Daily Weather History Graph

Search for Another Location

Airport:

Trip Planner

Search our weather history database for the weather conditions in past years. The results will help you decide how hot, cold, wet, or windy it might be!

Date:

Astronomy

Jul. 25, 2013 Rise Set
Actual Time 5:52 AM CDT 8:52 PM CDT
Civil Twilight 5:17 AM CDT 9:27 PM CDT
Nautical Twilight 4:32 AM CDT 10:12 PM CDT
Astronomical Twilight 3:38 AM CDT 11:05 PM CDT
Moon 10:18 PM CDT (7/25) 9:36 AM CDT (7/25)
Length of Visible Light 16h 10m
Length of Day
15h 00m
Waning Gibbous, 88% of the Moon is Illuminated
Jul 25
Waning Gibbous
Jul 29
Last Quarter
Aug 6
New
Aug 14
First Quarter
Aug 20
Full

Hourly Weather History & Observations

Time (CDT) Temp. Dew Point Humidity Pressure Visibility Wind Dir Wind Speed Gust Speed Precip Events Conditions
12:29 AM 66.2 °F 59.0 °F 78% 29.97 in 10.0 mi WSW 9.2 mph - 0.00 in Thunderstorm Mostly Cloudy
12:53 AM 64.9 °F 59.0 °F 81% 29.98 in 10.0 mi SW 5.8 mph - 0.00 in Rain Light Rain
1:31 AM 62.6 °F 60.8 °F 94% 29.97 in 2.0 mi NNW 5.8 mph - 0.13 in Rain Heavy Rain
1:40 AM 62.6 °F 60.8 °F 94% 29.96 in 8.0 mi Calm Calm - 0.14 in Rain Light Rain
1:53 AM 63.0 °F 61.0 °F 93% 29.97 in 9.0 mi Calm Calm - 0.14 in   Overcast
2:53 AM 61.0 °F 60.1 °F 97% 29.96 in 6.0 mi SSE 4.6 mph - N/A   Clear
3:53 AM 61.0 °F 60.1 °F 97% 29.95 in 9.0 mi South 5.8 mph - N/A   Clear
4:53 AM 60.1 °F 59.0 °F 96% 29.95 in 9.0 mi Calm Calm - N/A   Clear
5:53 AM 57.9 °F 57.0 °F 97% 29.96 in 2.5 mi Calm Calm - N/A   Clear
6:05 AM 57.2 °F 57.2 °F 100% 29.94 in 4.0 mi Calm Calm - N/A   Clear
6:53 AM 60.1 °F 59.0 °F 96% 29.95 in 6.0 mi Calm Calm - N/A   Clear
7:53 AM 64.9 °F 63.0 °F 93% 29.96 in 10.0 mi Calm Calm - N/A   Clear
8:53 AM 68.0 °F 63.0 °F 84% 29.96 in 10.0 mi North 4.6 mph - N/A   Clear
9:53 AM 71.1 °F 63.0 °F 75% 29.97 in 10.0 mi Calm Calm - N/A   Clear
10:53 AM 73.0 °F 62.1 °F 68% 29.96 in 10.0 mi Calm Calm - N/A   Clear
11:53 AM 75.0 °F 63.0 °F 66% 29.99 in 10.0 mi SW 9.2 mph - N/A   Clear
12:53 PM 73.9 °F 62.1 °F 66% 29.99 in 10.0 mi WSW 6.9 mph - N/A   Overcast
1:53 PM 72.0 °F 61.0 °F 68% 30.00 in 10.0 mi West 17.3 mph 24.2 mph 0.00 in   Mostly Cloudy
2:53 PM 64.9 °F 61.0 °F 87% 29.99 in 7.0 mi West 8.1 mph - 0.06 in Rain Light Rain
3:53 PM 71.1 °F 62.1 °F 73% 29.94 in 10.0 mi WSW 6.9 mph - 0.00 in   Clear
4:53 PM 77.0 °F 59.0 °F 54% 29.92 in 10.0 mi WNW 12.7 mph - N/A   Clear
5:53 PM 79.0 °F 55.9 °F 45% 29.92 in 10.0 mi West 11.5 mph - N/A   Clear
6:53 PM 75.9 °F 57.9 °F 54% 29.92 in 10.0 mi WSW 9.2 mph - N/A   Partly Cloudy
7:53 PM 73.9 °F 60.1 °F 62% 29.92 in 10.0 mi WSW 5.8 mph - N/A   Mostly Cloudy
8:53 PM 72.0 °F 59.0 °F 64% 29.92 in 10.0 mi WSW 5.8 mph - N/A   Mostly Cloudy
9:53 PM 68.0 °F 61.0 °F 78% 29.93 in 10.0 mi SSW 4.6 mph - N/A   Partly Cloudy
10:53 PM 64.0 °F 60.1 °F 87% 29.95 in 10.0 mi Calm Calm - 0.01 in   Partly Cloudy
11:53 PM 62.1 °F 60.1 °F 93% 29.94 in 10.0 mi Calm Calm - N/A   Scattered Clouds